Regional Weather Roundup
Issued by NWS Green Bay, WI

Home | Current Version | Previous Version | Text Only | Print | Product List | Glossary On
Versions: 1 2 3 4 5 6 7 8 9 10 11 12 13 14 15 16 17 18 19 20 21 22 23 24 25 26 27 28 29 30 31 32 33 34 35 36 37 38 39 40 41 42 43 44 45 46 47 48 49 50
000
ASUS43 KGRB 090000
RWRGRB

NORTH-CENTRAL AND NORTHEAST WISCONSIN REGIONAL WEATHER ROUNDUP
NATIONAL WEATHER SERVICE GREEN BAY WI
600 PM CST MON FEB 08 2016

WIZ005-009-010>012-018-019-090100-
NORTH CENTRAL WISCONSIN

CITY           SKY/WX    TMP DP  RH WIND       PRES   REMARKS
IRONWOOD       CLOUDY    14  10  85 NW15      29.79S WCI  -1
MANITOWISH WTR NOT AVBL
ARBOR VITAE    NOT AVBL
EAGLE RIVER    NOT AVBL
LAND O LAKES   NOT AVBL
RHINELANDER    LGT SNOW  15   9  76 NW13G21   29.74S WCI   1
PHILLIPS       NOT AVBL
ANTIGO         NOT AVBL
TOMAHAWK       NOT AVBL
MERRILL        NOT AVBL
$$

WIZ013-073-090100-
NORTHEAST WISCONSIN

CITY           SKY/WX    TMP DP  RH WIND       PRES   REMARKS
IRON MOUNTAIN  CLOUDY    17   9  70 NW13      29.72R HAZE    WCI   4
MARINETTE      CLOUDY    25  14  63 N20       29.73R
$$

WIZ017-030-035>037-045-090100-
CENTRAL WISCONSIN

CITY           SKY/WX    TMP DP  RH WIND       PRES   REMARKS
MEDFORD        NOT AVBL
WAUSAU         LGT SNOW  19  14  81 NW10      29.75R WCI   7
MOSINEE        LGT SNOW  18  16  93 NW15G21   29.77R WCI   3
MARSHFIELD     LGT SNOW  15   8  73 NW15      29.78S WCI   0
WISC RAPIDS    LGT SNOW  16   8  71 NW17G24   29.81R WCI   0
STEVENS POINT  NOT AVBL
WAUPACA        NOT AVBL
SHAWANO        NOT AVBL
CLINTONVILLE   NOT AVBL
WAUTOMA        NOT AVBL
$$

WIZ038-039-048-051-090100-
FOX VALLEY

CITY           SKY/WX    TMP DP  RH WIND       PRES   REMARKS
NWS GREEN BAY  LGT SNOW  26  23  88 NW9       29.73R FOG
APPLETON       LGT SNOW  27  21  80 NW8       29.71F
OSHKOSH        LGT SNOW  25  21  85 NW10      29.73R FOG
FOND DU LAC    LGT SNOW  24  19  81 NW14      29.74R
$$

WIZ022-050-052-090100-
EAST CENTRAL WISCONSIN

CITY           SKY/WX    TMP DP  RH WIND       PRES   REMARKS
EPHRAIM        NOT AVBL
STURGEON BAY   CLOUDY    25  18  74 N16       29.74R
MANITOWOC      NOT AVBL
SHEBOYGAN      LGT SNOW  26  23  88 NW10      29.71R VSB 1
$$

LMZ563-521-522-541>543-090100-
LAKESHORE

STATION/POSITION TIME  TEMP    WIND        PRES    VSBY  WAVE
                       AIR SEA DIR/SP/G                  HT/PER
                 (UTC) (F)     (DEG/KT/KT) (MB)    (MI)  (FT/S)
SHEBOYGAN LKSHOR 2300   29     330/ 13/ 16 1006.2R
KEWAUNEE LKSHORE 2300   26     350/ 11/ 17 1005.0R
ALGOMA MARINA    2311          330/ 13/ 18   N/A
NORTHPORT PIER   2301   25     340/ 20/ 24 1006.1R
CHAMBERS ISLAND  2300   25     320/ 15/ 21 1006.4R
MENOMINEE LKSHOR 2300   25     330/ 13     1005.3R
$$



USA.gov is the U.S. government's official web portal to all federal, state and local government web resources and services.